Location: Allos
(44.2333°N, 6.6333°E)
Time: 18:13:01
(UTC+00:00)

HJ-1A - Visible Passes

Search period start: 22 June 2021 00:00
Search period end: 02 July 2021 00:00
Orbit: 622 x 651 km, 97.7° (Epoch: 22 June)

Date Brightness Start Highest point End Pass type
(mag) Time Alt. Az. Time Alt. Az. Time Alt. Az.
22 Jun ? 20:53:47 10° WSW 20:55:27 12° W 20:57:08 10° WNW visible
24 Jun ? 19:59:18 10° SSW 20:03:25 39° W 20:07:35 10° NNW visible
25 Jun ? 20:22:27 10° SSW 20:25:59 23° W 20:29:33 10° NW visible
26 Jun ? 20:46:19 10° WSW 20:48:38 14° W 20:50:58 10° WNW visible
28 Jun ? 19:52:25 10° S 19:56:39 46° W 20:00:57 10° NNW visible
29 Jun ? 20:15:26 10° SSW 20:19:12 27° W 20:23:00 10° NW visible
30 Jun ? 20:39:02 10° SW 20:41:49 16° W 20:44:38 10° NW visible
